EW3533 Weather Reports


Display with metric or nautical units.
time (UTC)temp
F
wind
direction
speed
MPH
gust
MPH
rain 1hr
in
rain 24hr
in
rain mn
in
humidity
%
barometer
mb
20260503210048 63 252 19.0 30.0 0.00 0.00 0.00 42 1006.7
20260503204548 64 269 15.0 28.0 0.00 0.00 0.00 41 1006.7
20260503203036 63 279 16.0 29.0 0.00 0.00 0.00 42 1006.9
20260503201533 64 268 15.0 27.0 0.00 0.00 0.00 44 1007.0
20260503200034 63 286 18.0 32.0 0.00 0.00 0.00 45 1007.3
20260503194532 63 238 17.0 28.0 0.00 0.00 0.00 46 1007.5
20260503193037 63 256 19.0 31.0 0.00 0.00 0.00 46 1007.6
20260503191528 62 234 22.0 34.0 0.00 0.00 0.00 46 1007.7
20260503190034 62 225 16.0 29.0 0.00 0.00 0.00 46 1007.9
20260503184535 62 250 14.0 25.0 0.00 0.00 0.00 46 1008.0
20260503183024 62 240 14.0 25.0 0.00 0.00 0.00 44 1008.1
20260503181520 62 239 12.0 21.0 0.00 0.00 0.00 45 1008.2
20260503180024 60 200 10.0 17.0 0.00 0.00 0.00 49 1008.6
20260503174512 59 203 10.0 18.0 0.00 0.00 0.00 48 1009.1
20260503173009 58 237 13.0 19.0 0.00 0.00 0.00 49 1009.3
20260503171505 57 254 8.0 15.0 0.00 0.00 0.00 52 1009.5
20260503100107 38 185 3.0 6.0 0.00 0.00 0.00 69 1011.8
20260503081541 36 211 2.0 4.0 0.00 0.00 0.00 75 1013.4
20260503071534 38 211 2.0 5.0 0.00 0.00 0.00 70 1013.7
20260503054525 41 236 6.0 10.0 0.00 0.00 0.00 63 1014.3
20260503053016 41 229 7.0 11.0 0.00 0.00 0.00 63 1014.3
20260503051513 41 223 6.0 12.0 0.00 0.00 0.00 63 1014.4
20260503050012 41 220 7.0 10.0 0.00 0.00 0.00 63 1014.5
20260503044509 42 231 6.0 10.0 0.00 0.00 0.00 63 1014.5
20260503043009 42 252 6.0 11.0 0.00 0.00 0.00 63 1014.6
20260503041509 42 225 6.0 10.0 0.00 0.00 0.00 62 1014.6
20260503040002 43 222 6.0 10.0 0.00 0.00 0.00 62 1014.6
20260503034503 43 236 6.0 10.0 0.00 0.00 0.00 60 1014.7
20260503033103 44 236 8.0 12.0 0.00 0.00 0.00 59 1014.7
20260503031559 44 236 5.0 11.0 0.00 0.00 0.00 58 1014.7
20260503030059 44 230 6.0 11.0 0.00 0.00 0.00 57 1014.8
20260503024605 44 225 6.0 10.0 0.00 0.00 0.00 59 1014.8
20260503023056 44 220 5.0 8.0 0.00 0.00 0.00 59 1014.8
20260503021556 44 217 3.0 6.0 0.00 0.00 0.00 60 1014.9
20260503020056 45 217 3.0 6.0 0.00 0.00 0.00 58 1014.8
20260503014619 45 217 3.0 6.0 0.00 0.00 0.00 59 1014.8
20260503013056 45 217 3.0 5.0 0.00 0.00 0.00 57 1014.6
20260503011553 46 217 4.0 6.0 0.00 0.00 0.00 55 1014.6
20260503010054 46 217 3.0 6.0 0.00 0.00 0.00 53 1014.6
20260503004552 47 218 3.0 8.0 0.00 0.00 0.00 51 1014.5
20260503003053 48 218 3.0 7.0 0.00 0.00 0.00 48 1014.5
20260503001552 49 221 4.0 8.0 0.00 0.00 0.00 43 1014.5
20260503000053 49 217 6.0 8.0 0.00 0.00 0.00 43 1014.6
20260502234550 49 229 5.0 8.0 0.00 0.00 0.00 39 1014.6
20260502233049 49 238 3.0 9.0 0.00 0.00 0.00 41 1014.7
20260502231555 50 254 3.0 10.0 0.00 0.00 0.00 39 1014.8
20260502230047 51 227 4.0 13.0 0.00 0.00 0.00 38 1014.8
20260502224545 51 294 1.0 7.0 0.00 0.00 0.00 38 1014.9
20260502223044 51 269 6.0 15.0 0.00 0.00 0.00 38 1015.0
20260502221543 51 242 2.0 7.0 0.00 0.00 0.00 39 1015.1
20260502220043 50 221 3.0 6.0 0.00 0.00 0.00 39 1015.2
20260502214539 50 213 2.0 9.0 0.00 0.00 0.00 39 1015.3
20260502213037 50 351 3.0 11.0 0.00 0.00 0.00 41 1015.4
20260502211545 50 305 2.0 8.0 0.00 0.00 0.00 40 1015.5